TimeAST,TemperatureF,Dew PointF,Humidity,Sea Level PressureIn,VisibilityMPH,Wind Direction,Wind SpeedMPH,Gust SpeedMPH,PrecipitationIn,Events,Conditions,WindDirDegrees,DateUTC
12:00 AM,89.6,82.4,79,29.56,-9999.0,North,4.6,-,N/A,,Clear,360,2010-09-07 21:00:00
1:00 AM,89.6,82.4,79,29.56,-9999.0,NNW,4.6,-,N/A,,Clear,340,2010-09-07 22:00:00
2:00 AM,91.4,82.4,75,29.56,-9999.0,NW,4.6,-,N/A,,Clear,310,2010-09-07 23:00:00
3:00 AM,89,81,72,29.58,6,,2.3,,,,,,2010-09-08 00:00:00
3:00 AM,89.6,80.6,75,29.56,-9999.0,North,-9999.0,-,N/A,,Clear,0,2010-09-08 00:00:00
4:00 AM,86.0,80.6,84,29.56,-9999.0,North,-9999.0,-,N/A,,Clear,0,2010-09-08 01:00:00
5:00 AM,86.0,80.6,84,29.59,5.0,Calm,Calm,-,N/A,,Unknown,0,2010-09-08 02:00:00
6:00 AM,86.0,82.4,89,29.59,4.3,Calm,Calm,-,N/A,,Unknown,0,2010-09-08 03:00:00
7:00 AM,91.4,80.6,71,29.62,5.6,Variable,1.2,-,N/A,,Unknown,0,2010-09-08 04:00:00
8:00 AM,95.0,80.6,63,29.62,5.6,Variable,1.2,-,N/A,,Unknown,0,2010-09-08 05:00:00
9:00 AM,101,65,22,29.64,6,,2.3,,,,Smoke,,2010-09-08 06:00:00
9:00 AM,-9999,-9999,N/A,29.62,5.6,Variable,2.3,-,N/A,,Unknown,0,2010-09-08 06:00:00
10:00 AM,104.0,62.6,26,29.62,-9999.0,North,8.1,-,N/A,,Clear,360,2010-09-08 07:00:00
11:00 AM,105.8,62.6,24,29.62,-9999.0,North,6.9,-,N/A,,Clear,360,2010-09-08 08:00:00
12:00 PM,105.8,64.4,26,29.59,-9999.0,NNE,5.8,-,N/A,,Clear,20,2010-09-08 09:00:00
1:00 PM,105.8,68.0,30,29.56,-9999.0,NE,8.1,-,N/A,,Clear,40,2010-09-08 10:00:00
2:00 PM,105.8,71.6,33,-9999,-9999.0,ENE,6.9,-,N/A,,Clear,60,2010-09-08 11:00:00
3:00 PM,103,73,29,29.57,6,ENE,6.9,,,,,70,2010-09-08 12:00:00
3:00 PM,104.0,73.4,38,29.56,-9999.0,ENE,6.9,-,N/A,,Clear,70,2010-09-08 12:00:00
4:00 PM,102.2,73.4,40,29.56,-9999.0,NNE,6.9,-,N/A,,Clear,20,2010-09-08 13:00:00
5:00 PM,-9999,-9999,N/A,29.56,-9999.0,East,4.6,-,N/A,,Clear,80,2010-09-08 14:00:00
6:00 PM,-9999,-9999,N/A,29.56,5.0,NE,4.6,-,N/A,,Unknown,50,2010-09-08 15:00:00
7:00 PM,96.8,75.2,50,29.56,-9999.0,ENE,4.6,-,N/A,,Clear,70,2010-09-08 16:00:00
8:00 PM,95.0,77.0,56,29.59,-9999.0,ENE,3.5,-,N/A,,Clear,70,2010-09-08 17:00:00
9:00 PM,94,78,52,29.61,7,ENE,2.3,,,,,60,2010-09-08 18:00:00
9:00 PM,95.0,78.8,59,29.59,-9999.0,ENE,2.3,-,N/A,,Clear,60,2010-09-08 18:00:00
10:00 PM,98.6,77.0,50,29.59,-9999.0,NE,4.6,-,N/A,,Clear,50,2010-09-08 19:00:00
11:00 PM,93.2,77.0,59,29.59,-9999.0,SSW,3.5,-,N/A,,Unknown,210,2010-09-08 20:00:00